NV6B Weather Reports


Display with metric or nautical units.
time (UTC)temp
F
wind
direction
speed
MPH
gust
MPH
rain 1hr
in
rain 24hr
in
rain mn
in
humidity
%
barometer
mb
20260903190530 66 221 3.0 3.0 0.00 0.08 0.08 56 1012.1
20260903185530 66 193 1.0 4.0 0.00 0.08 0.08 59 1012.4
20260903184530 66 218 3.0 5.0 0.00 0.08 0.08 58 1012.6
20260903183550 66 183 4.0 5.0 0.00 0.08 0.08 55 1012.7
20260903182529 65 114 3.0 4.0 0.00 0.08 0.08 56 1012.8
20260903181549 65 110 3.0 4.0 0.00 0.08 0.08 57 1012.9
20260903180529 65 156 3.0 8.0 0.00 0.08 0.08 56 1013.0
20260903175529 65 96 3.0 9.0 0.00 0.08 0.08 56 1013.0
20260903174529 64 173 1.0 10.0 0.00 0.08 0.08 60 1013.1
20260903173529 63 147 6.0 7.0 0.00 0.08 0.08 60 1013.2
20260903172529 62 129 5.0 5.0 0.00 0.08 0.08 63 1013.3
20260903171529 61 127 3.0 5.0 0.00 0.08 0.08 67 1013.3
20260903170529 61 93 0.0 3.0 0.00 0.08 0.08 68 1013.5
20260903165529 61 93 2.0 4.0 0.00 0.08 0.08 68 1013.6
20260903140527 54 166 3.0 4.0 0.00 0.08 0.08 81 1013.2
20260903135527 54 170 2.0 3.0 0.00 0.08 0.08 82 1013.2
20260903105525 54 93 3.0 8.0 0.01 0.08 0.08 80 1012.4
20260903104525 54 83 3.0 8.0 0.02 0.08 0.08 80 1012.5
20260903103525 55 93 6.0 8.0 0.01 0.07 0.07 80 1012.6
20260903102525 55 89 3.0 6.0 0.01 0.07 0.07 80 1012.7
20260903101525 55 84 3.0 6.0 0.02 0.07 0.07 80 1012.7
20260903100525 55 78 3.0 6.0 0.02 0.07 0.07 80 1012.6
20260903095525 55 72 3.0 6.0 0.02 0.07 0.07 80 1012.6
20260903065523 58 255 2.0 8.0 0.00 0.00 0.00 63 1013.5
20260903064523 59 256 3.0 6.0 0.00 0.00 0.00 59 1013.6
20260903063523 59 351 0.0 3.0 0.00 0.00 0.00 54 1013.4
20260903062523 59 351 0.0 4.0 0.00 0.00 0.00 53 1013.2
20260903061522 59 351 1.0 6.0 0.00 0.00 0.00 53 1013.2
20260903060523 59 351 1.0 6.0 0.00 0.00 0.00 53 1013.2
20260903055522 59 349 3.0 4.0 0.00 0.00 0.00 53 1013.1
20260903054522 59 349 3.0 6.0 0.00 0.00 0.00 52 1013.2
20260903053522 60 347 3.0 6.0 0.00 0.00 0.00 52 1013.2
20260903052522 60 356 3.0 8.0 0.00 0.00 0.00 51 1013.2
20260903051542 60 360 3.0 7.0 0.00 0.00 0.00 50 1013.1
20260903050522 60 354 4.0 6.0 0.00 0.00 0.00 50 1013.1
20260903045542 61 322 2.0 8.0 0.00 0.00 0.00 49 1013.0
20260903044522 61 309 3.0 10.0 0.00 0.00 0.00 48 1013.0
20260903043522 62 4 5.0 8.0 0.00 0.00 0.00 48 1012.9
20260903042522 62 344 3.0 9.0 0.00 0.00 0.00 47 1012.9
20260903041522 62 4 5.0 10.0 0.00 0.00 0.00 45 1012.5
20260903040521 63 14 3.0 7.0 0.00 0.00 0.00 45 1012.3
20260903035521 63 343 6.0 9.0 0.00 0.00 0.00 44 1012.1
20260903034522 64 295 3.0 8.0 0.00 0.00 0.00 43 1012.0
20260903010520 71 221 6.0 8.0 0.00 0.00 0.00 26 1010.7
20260903005520 72 212 4.0 10.0 0.00 0.00 0.00 25 1010.7
20260903004540 72 216 4.0 9.0 0.00 0.00 0.00 25 1010.7
20260903003520 72 221 8.0 9.0 0.00 0.00 0.00 26 1010.7
20260903002520 72 226 9.0 11.0 0.00 0.00 0.00 25 1010.7
20260903001519 72 230 9.0 14.0 0.00 0.00 0.00 24 1010.7
20260903000519 73 211 4.0 14.0 0.00 0.00 0.00 25 1010.6
20260902235519 73 233 5.0 15.0 0.00 0.00 0.00 26 1010.6
20260902234519 74 222 4.0 13.0 0.00 0.00 0.00 24 1010.6
20260902233520 75 237 3.0 11.0 0.00 0.00 0.00 26 1010.6
20260902232519 75 222 3.0 11.0 0.00 0.00 0.00 25 1010.6
20260902231519 74 239 2.0 11.0 0.00 0.00 0.00 26 1010.8
20260902230519 74 216 4.0 5.0 0.00 0.00 0.00 24 1010.8
20260902225519 75 215 9.0 12.0 0.00 0.00 0.00 25 1010.7
20260902224519 75 230 6.0 10.0 0.00 0.00 0.00 26 1010.7
20260902223519 74 216 5.0 9.0 0.00 0.00 0.00 23 1010.9
20260902222519 74 305 11.0 16.0 0.00 0.00 0.00 25 1010.9
20260902221519 75 230 7.0 13.0 0.00 0.00 0.00 25 1011.0